OBJECT E, 53448

Orbit data source: Space-Track

You're viewing an Uncataloged Satellite

Recently launched and/or uncataloged satellites may have evolving metadata. Metadata may include but not limited to: Owner, Maufacturer, Bus, Motor, and Mission.

OBJECT E, 53448 is a satellite owned by Changguang WJ (CN) in SSO that was launched on Wed, 10 Aug 2022 UTC via a CHANG ZHENG 6 launch vehicle from the Taiyaun Space Center, China (TSC). Unknown objects in Earth's orbit typically refer to objects detected orbiting the Earth but have not yet been identified or cataloged. These objects could be anything from previously untracked satellites, spent rocket stages, debris from satellite collisions, or even natural meteoroids temporarily captured by Earth's gravity.

Loading next visibility...
Identifier
53448, 2022-098E
Orbit
SSO
Country
Flag of CNCN / PRC
Related business
Manufacturer
Changguang WJ
Mission
Operational Commercial Imaging
Bus & Motor
JL-1, Unknown motor
Mass
42 kg wet, 42 kg dry
Launch date (UTC)
2022-08-10 (4 years ago)
Launch vehicle
CHANG ZHENG 6
Launch site
Taiyaun Space Center, China (TSC)
Object type
Unknown
Shape & HBR
Box + 2 Pan, 0.8 m
Radar Cross Section
2.000 m², Medium (>0.1 m² and < 1m²)

Expand to show TLE details & history
Last TLE update: 22 hours ago

TLE from 22 hours ago
0 OBJECT E
1 53448U 22098E   26172.51709397  .00073370  00000-0  60810-3 0  9992
2 53448  97.5582 303.5536 0001460 306.1920  53.9207 15.70004529215376
Epoch: 2026-06-21T12:24Z
TLE epoch observation values (Epoch: 2026-06-21T12:24:36.919Z)
Latitude
0.00006°
Longitude
-152.31647°
Altitude
361.458 km
Speed
7.693 km/s
True Right ascension
20h 14m 12s
True Declination
0° 00' 00"
Sunlit
Object was in full shadow at epoch
Visualization orbit readout
Latitude
Unknown
Longitude
Unknown
Altitude
Unknown
Speed
Unknown
Apparent Right ascension
Unknown
Apparent Declination
Unknown
Sunlit
N/A
Visualization observer readout
Local Sidereal Time
21:36:43
Azimuth
Unknown
Elevation
Unknown
Doppler factor
Unknown
Orbital elements
Apogee altitude
356.773 km
Perigee altitude
354.807 km
Semi-major axis
6,733.927 km
Eccentricity
0.00015
Inclination
97.5582°
RAAN
303.5536°
Arg. of periapsis
306.192°
True anomaly
53.93422°
Mean anomaly
53.9207°
Eccentric anomaly
53.92746°
Mean motion
3.92772 °/min
Orbital period
91.66 mins
BSTAR
0.0006081
Loading maneuver chart data...
Computing Atmospheric mass density...
Loading historical data...
Loading historical data...
Loading historical data...
Loading historical data...
Loading historical data...
Loading historical data...
Loading historical data...

Documentation

Showing up to 5 results
|